SCP
0 0 0 0 0 0 0 0 0 0 0 0 0 0 0 0 0 0 0 0 0 0 0 0 0 0 0 0 0 0 0 0 0 0 0 0 0 0
0 0 0 0 0 0 0 0 0 0 0 0 0 0 0 0 0 0 0 0 0 0 0 0 0 0 0 0 0 0 0 0 0 0 0 0 0 0
0 0 0 0 0 0 0 0 0 0 0 0 0 0 0 0 0 0 0 0 0 0 0 0 0 0 0 0 0 0 0 0 0 0 0 0 0 0
0 0 0 0 0 0 0 0 0 0 0 0 0 0 0 0 0 0 0 0 0 0 0 0 0 0 0 0 0 0 0 0 0 0 0 0 0 0
0 0 0 0 0 0 0 0 0 0 0 0 0 0 0 0 0 0 0 0 0 0 0 0 0 0 0 0 0 0 0 0 0 0 0 0 0 0
0 0 0 0 0 0 0 0 0 0 0 0 0 0 0 0 0 0 0 0 0 0 0 0 0 0 0 0 0 0 0 0 0 0 0 0 0 0
0 0 0 0 0 0 0 0 0 0 0 0 0 0 0 0 0 0 0 0 0 0 0 0 0 0 0 0 0 0 0 0 0 0 0 0 0 0
0 0 0 0 0 0 0 0 0 0 0 0 0 0 0 0 0 0 0 0 0 0 0 0 0 0 0 0 0 0 0 0 0 0 0 0 0 0
0 0 0 0 0 0 0 0 0 0 0 0 0 0 0 0 0 0 0 0 0 0 0 0 0 0 0 0 0 0 0 0 0 0 0 0 0 0
0 0 0 0 0 0 0 0 0 0 0 0 0 0 0 0 0 0 0 0 0 0 0 0 0 0 0 0 0 0 0 0 0 0 0 0 0 0
0 0 0 0 0 0 0 0 0 0 0 0 0 0 0 0 0 0 0 0 0 0 0 0 0 0 0 0 0 0 0 0 0 0 0 0 0 0
0 0 0 0 0 0 0 0 0 0 0 0 0 0 0 0 0 0 0 0 0 0 0 0 0 0 0 0 0 0 0 0 0 0 0 0 0 0
0 0 0 0 0 0 0 0 0 0 0 0 0 0 0 0 0 0 0 0 0 0 0 0 0 0 0 0 0 0 0 0 0 0 0 0 0 0
0 0 0 0 0 0 0 0 0 0 0 0 0 0 0 0 0 0 0 0 0 0 0 0 0 0 0 0 0 0 0 0 0 0 0 0 0 0
0 0 0 0 0 0 0 0 0 0 0 0 0 0 0 0 0 0 0 0 0 0 0 0 0 0 0 0 0 0 0 0 0 0 0 0 0 0
0 0 0 0 0 0 0 0 0 0 0 0 0 0 0 0 0 0 0 0 0 0 0 0 0 0 0 0 0 0 0 0 0 0 0 0 0 0
0 0 0 0 0 0 0 0 0 0 0 0 0 0 0 0 0 0 0 0 0 0 0 0 0 0 0 0 0 0 0 0 0 0 0 0 0 0
0 0 0 0 0 0 0 0 0 0 0 0 0 0 0 0 0 0 0 0 0 0 0 0 0 0 0 0 0 0 0 0 0 0 0 0 0 0
0 0 0 0 0 0 0 0 0 0 0 0 0 0 0 0 0 0 0 0 0 0 0 0 0 0 0 0 0 0 0 0 0 0 0 0 0 0
0 0 0 0 0 0 0 0 0 0 0 0 0 0 0 0 0 0 0 0 0 0 0 0 0 0 0 0 0 0 0 0 0 0 0 0 0 0
0 0 0 0 0 0 0 0 0 0 0 0 0 0 0 0 0 0 0 0 0 0 0 0 0 0 0 0 0 0 0 0 0 0 0 0 0 0
0 0 0 0 0 0 0 0 0 0 0 0 0 0 0 0 0 0 0 0 0 0 0 0 0 0 0 0 0 0 0 0 0 0 0 0 0 0
0 0 0 0 0 0 0 0 0 0 0 0 0 0 0 0 0 0 0 0 0 0 0 0 0 0 0 0 0 0 0 0 0 0 0 0 0 0
Wind_Speed
5 5 5 4 5 5 5 5 6 6 7 6 4 5 5 5 6 7 7 8 10 10 11 10 10 11 11 11 11 11 11 11 10 11 12 12 12 12
4 5 5 4 4 5 5 5 6 6 7 5 5 5 6 6 7 7 7 8 8 9 10 9 10 10 10 10 11 10 11 10 11 11 12 12 12 12
5 5 6 5 4 5 4 5 5 5 6 6 5 6 7 7 7 6 6 7 5 7 9 9 9 10 10 10 10 10 10 11 11 11 12 11 11 11
5 5 6 4 6 5 5 5 5 5 6 7 5 5 7 7 7 7 6 5 6 6 8 9 8 9 10 10 10 10 10 10 11 11 11 11 11 11
5 5 6 5 6 5 5 5 4 4 5 5 5 4 5 5 6 6 6 5 6 5 6 7 8 8 10 9 10 9 8 9 10 10 10 11 10 10
5 5 5 5 5 5 5 5 4 4 4 4 4 4 4 5 5 4 5 4 5 5 5 5 6 7 8 8 8 7 7 7 9 9 9 8 8 8
4 5 4 5 6 5 4 4 4 3 3 3 4 4 4 4 4 4 5 5 5 4 4 3 4 4 4 6 7 6 6 6 6 7 7 6 6 7
4 4 4 4 5 6 7 6 6 5 4 3 3 4 5 5 4 4 4 5 4 3 4 4 3 4 4 3 4 4 4 5 4 5 4 4 4 4
4 4 3 3 4 4 5 5 5 6 6 5 5 5 5 5 5 5 5 5 5 4 4 4 3 4 3 3 3 3 3 3 3 2 1 2 2 2
4 4 4 4 3 4 4 4 4 4 4 4 4 5 5 5 5 5 4 4 4 3 3 4 4 3 3 3 3 4 3 2 2 1 1 1 2 2
4 4 4 4 4 4 4 4 4 4 3 4 4 4 5 5 5 3 3 3 3 3 2 3 3 3 3 3 2 2 3 2 1 1 1 1 1 2
3 3 4 4 4 4 4 3 3 3 3 3 3 3 3 3 5 4 3 3 3 2 2 2 2 2 2 2 2 2 2 1 1 1 1 1 1 1
2 2 2 3 4 5 4 3 3 3 3 3 2 2 2 3 3 3 3 2 2 2 2 2 2 2 2 2 3 3 3 2 1 1 1 1 1 1
2 2 2 3 4 4 3 3 3 3 2 2 2 2 2 2 2 3 3 2 2 3 3 2 2 2 2 2 2 3 3 3 2 2 1 1 1 1
2 3 3 3 3 3 3 3 2 1 1 1 2 2 2 3 2 2 2 2 2 3 3 2 2 1 1 1 2 2 3 3 3 2 2 1 1 1
2 2 2 2 2 2 2 2 2 2 2 1 2 2 2 2 2 2 2 2 2 2 3 3 2 1 1 2 2 2 2 2 2 2 2 2 2 1
2 1 1 1 1 1 1 1 1 1 1 2 1 1 1 2 2 2 2 1 1 2 2 2 2 2 2 2 2 2 2 2 2 2 2 2 2 1
2 1 1 1 1 2 1 2 2 2 2 2 1 1 1 1 1 1 1 1 2 2 2 2 2 1 1 1 2 2 2 2 2 2 2 2 2 2
1 1 1 1 1 2 2 2 2 2 2 1 1 1 1 1 1 1 1 1 1 2 2 2 2 2 1 1 2 2 2 2 2 1 1 1 2 2
1 1 1 1 2 2 2 2 2 2 2 1 1 1 1 1 1 1 1 1 1 2 2 2 2 2 2 2 2 2 3 2 2 1 1 1 2 2
2 2 1 1 2 2 2 2 2 2 2 1 1 1 1 1 1 1 1 1 1 1 1 2 2 3 2 1 1 1 2 3 2 2 2 1 1 2
2 2 2 2 2 2 2 2 2 1 1 1 1 1 1 1 1 1 1 1 1 1 1 2 2 1 1 0 1 1 2 3 2 2 2 2 1 1
3 3 2 2 2 1 1 1 2 1 1 1 1 1 1 1 1 1 1 1 1 1 1 1 1 1 1 0 1 1 2 3 2 3 3 4 2 1
Wind_Direction
253 256 259 261 261 262 260 256 256 269 275 271 269 268 280 282 287 280 280 280 281 282 285 280 270 268 269 265 256 255 256 257 260 260 260 260 259 263
254 253 258 262 265 262 261 263 260 259 268 275 279 283 289 287 288 285 285 289 283 288 286 282 267 266 264 267 260 256 255 253 256 257 257 260 258 261
258 253 257 263 263 264 262 262 260 257 262 275 277 279 283 288 289 288 288 283 280 282 289 285 269 262 263 267 265 256 256 252 254 254 255 260 258 260
261 261 262 263 261 261 258 261 259 255 256 268 275 279 281 285 288 289 292 288 287 289 289 289 279 262 261 266 266 258 254 253 253 253 255 259 257 259
260 259 263 265 265 267 265 262 261 260 256 261 273 281 285 287 292 291 293 292 291 288 282 280 283 274 262 267 265 257 258 256 253 249 252 259 259 261
263 261 260 261 268 273 273 271 268 264 258 257 267 277 288 292 288 291 296 298 295 292 285 282 281 281 272 268 267 261 261 262 252 247 249 251 256 258
269 267 266 269 278 279 278 278 273 268 263 263 270 283 285 287 286 290 294 300 298 297 295 290 289 288 279 271 265 257 260 261 253 248 252 249 250 250
270 274 275 272 278 277 280 280 279 268 261 265 271 273 282 287 290 288 296 302 301 313 303 296 297 293 297 287 297 271 255 253 253 249 237 233 237 244
264 270 276 282 282 271 276 279 281 286 279 267 264 269 281 287 288 284 286 292 294 307 305 297 302 297 300 320 339 322 286 259 259 260 235 224 237 253
279 276 275 275 277 282 281 285 282 282 284 274 270 275 283 286 282 284 291 297 299 299 298 294 305 306 314 315 349 334 322 292 266 277 271 256 260 262
278 279 277 276 287 294 284 282 286 294 304 302 300 300 302 303 297 289 287 284 295 305 316 297 305 314 319 317 350 353 333 317 304 288 272 266 264 260
278 276 277 284 293 293 279 275 278 295 303 306 305 308 306 307 299 283 281 283 290 298 324 303 305 321 320 333 344 346 345 348 333 331 327 324 344 280
281 282 288 301 296 296 298 295 302 303 297 302 309 318 322 314 310 306 300 288 284 283 311 313 310 312 298 314 339 348 344 340 337 343 20 31 351 295
292 301 311 314 307 311 318 337 333 319 307 314 319 320 320 315 319 322 326 325 313 298 296 291 285 293 298 304 315 339 342 341 342 340 342 7 341 333
308 320 324 326 321 326 351 352 334 323 313 308 313 318 320 318 325 331 341 351 346 329 312 303 284 288 291 291 310 323 328 334 335 341 346 347 331 331
319 328 336 347 339 336 345 345 334 326 315 301 304 313 321 326 331 331 335 346 352 352 356 354 337 314 286 298 302 313 322 316 330 342 353 356 357 354
324 319 337 347 353 355 351 342 334 327 320 309 307 316 331 341 345 345 349 3 357 349 357 0 360 2 347 324 306 311 316 325 326 331 348 -0 358 356
329 324 333 332 338 336 331 331 331 330 325 320 322 328 334 340 350 357 5 10 1 351 346 341 338 339 331 24 348 300 313 320 331 339 351 352 356 4
342 343 340 331 330 324 322 323 321 324 322 320 322 332 337 344 350 357 5 5 355 349 343 339 339 335 335 338 3 345 308 315 326 337 346 352 343 350
349 338 327 322 317 313 315 321 321 323 325 331 338 344 346 349 356 359 2 351 344 346 347 350 348 339 315 304 311 337 349 328 318 318 331 354 351 336
340 330 318 307 302 303 305 309 309 308 316 323 336 348 349 351 355 354 353 349 335 341 340 338 330 315 290 287 322 345 3 12 351 326 326 331 355 11
342 338 324 311 299 295 298 305 309 311 316 326 338 346 349 338 336 333 330 326 333 339 332 331 329 338 355 6 355 347 351 359 15 31 18 2 346 5
341 341 334 321 312 307 303 308 313 316 321 325 334 339 335 332 335 337 334 328 329 338 337 343 357 24 25 350 2 5 357 352 5 30 35 35 45 7